Погода в Овощах

Россия / Ставропольский край     45°22′04″N   43°19′40″E
темп.,
°C
ветер,
м/с
пор.,
м/с
влажн.,
%
обл.,
%
осадки,
мм/ч
давл.,
гПа
погр.,
м
7 июля, чт
чт700:00+19юв511390 0.0 1014256
03:00+16юв410570 0.0 1014180
06:00+17юв512650 0.0 1015381
09:00+23вюв810370 0.0 10141160
12:00+28вюв89250 0.0 10131690
15:00+30вюв78210 0.0 10112093
18:00+28в67290 0.0 10111951
21:00+22вюв612430 0.0 1013353
8 июля, пт
пт800:00+18вюв410600 0.0 1013234
03:00+15вюв49770 0.0 1013180
06:00+18вюв411730 0.0 1013386
09:00+25вюв810410 0.0 10121172
12:00+30вюв89300 0.0 10111887
15:00+32вюв782446 0.0 10092462
18:00+31в5824100 0.0 10082146
21:00+26вюв71432100 0.0 1010499
9 июля, сб
сб900:00+22вюв51147100 0.0 1010314
03:00+21юв51350100 0.0 1010447
06:00+22в3957100 0.0 1010401
09:00+28в69367 0.0 10091219
12:00+32в79263 0.0 10082436
15:00+34вюв772393 0.0 10062984
18:00+32в672648 0.0 10052013
21:00+23в51353100 0.6 1007284
10 июля, вс
вс1000:00+21в49525 0.3 1006164
03:00+19вюв49634 0.3 1006185
06:00+21юв410640 0.0 1006321
09:00+28юв683281 0.0 1005908
12:00+33вюв67232 0.0 10031993
15:00+36вюв67202 0.0 10012662
18:00+35юв58203 0.0 10002824
21:00+21сз71175100 0.0 1004200
11 июля, пн
пн1100:00+22ссз2264100 0.0 100428
03:00+20зсз4568100 0.0 100694
06:00+19зсз51085100 0.0 1007334
09:00+23сз576689 0.0 1008620
12:00+26ссз565540 1.3 1008971
15:00+31ссз66380 1.6 10081760
18:00+26сз810510 0.1 1010641
21:00+22зсз49720 0.3 1012239